Flag for Austria Weather past 2 weeks in Schwechat, Lower Austria, Austria

Now
32 °F

Passing clouds.


Feels Like: 20 °F
Forecast: 31 / 38 °F
Wind: 18 mph from Southeast

Location: Vienna Schwechat-Flughafen Airport

Current Time: Jan 29, 2015 at 9:56:21 PM

Latest Report: Jan 29, 2015 at 9:20 PM


Visibility: 4 mi

Pressure: 29.24 "Hg

Humidity: 93%

Dew point: 30 °F

Location of SchwechatLocation

Historic Weather in Schwechat — Graph

°F

Schwechat temperature yesterday

Maximum temperature yesterday: 41 °F (at 11:20 AM)
Minimum temperature yesterday: 27 °F (at 8:50 PM)
Average temperature yesterday: 36 °F

Past Weeks' High & Low Weather Summary

 TemperatureHumidityPressure
High54 °F (Jan 17, 6:20 AM)100% (Jan 16, 8:50 PM)30.30 "Hg (Jan 16, 8:50 PM)
Low23 °F (Jan 27, 1:20 AM)56% (Jan 26, 11:50 AM)29.27 "Hg (Jan 29, 8:50 PM)
Average37 °F84%29.96 "Hg
* Reported Jan 14 8:20 PM — Jan 29 8:50 PM, Schwechat, Weather by CustomWeather, © 2014

Note: Actual official high and low records may vary slightly from our data, if they occured in-between our weather recording intervals... More about our weather records

Advertising

Schwechat weather history for previous 24 hours

 ConditionsComfort  
Time TempWeatherWind HumidityBarometerVisibility
8:50 PM
Jan 29
32 °FPassing clouds.17 mph93%29.27 "Hg4 mi
8:20 PM32 °FPassing clouds.14 mph93%29.30 "Hg4 mi
7:50 PM32 °FPassing clouds.13 mph93%29.33 "Hg4 mi
7:20 PM32 °FPartly cloudy.12 mph93%29.36 "Hg4 mi
6:50 PM32 °FPartly cloudy.12 mph93%29.36 "Hg4 mi
6:20 PM32 °FPartly cloudy.14 mph93%29.39 "Hg4 mi
5:50 PM32 °FPassing clouds.8 mph100%29.39 "HgN/A
5:20 PM32 °FPassing clouds.12 mph100%29.42 "HgN/A
4:50 PM34 °FClear.10 mph93%29.42 "Hg10 mi
4:20 PM34 °FSunny.12 mph93%29.42 "Hg10 mi
3:50 PM36 °FSunny.9 mph87%29.42 "Hg10 mi
3:20 PM36 °FBroken clouds.12 mph87%29.45 "HgN/A
2:50 PM37 °FBroken clouds.9 mph81%29.45 "HgN/A
2:20 PM39 °FPartly sunny.6 mph70%29.45 "HgN/A
1:50 PM39 °FPartly sunny.5 mph70%29.47 "HgN/A
1:20 PM37 °FPartly sunny.7 mph75%29.47 "HgN/A
12:50 PM37 °FPartly sunny.7 mph75%29.50 "HgN/A
12:20 PM37 °FPartly sunny.6 mph75%29.50 "HgN/A
11:50 AM37 °FPartly sunny.3 mph75%29.53 "HgN/A
11:20 AM36 °FPartly sunny.6 mph75%29.53 "HgN/A
10:50 AM36 °FPartly sunny.7 mph75%29.53 "HgN/A
10:20 AM36 °FPartly sunny.3 mph75%29.53 "HgN/A
9:50 AM36 °FPartly sunny.6 mph81%29.53 "HgN/A
9:20 AM34 °FPartly sunny.5 mph81%29.53 "HgN/A
8:50 AM34 °FBroken clouds.3 mph81%29.53 "HgN/A
8:20 AM32 °FBroken clouds.2 mph87%29.53 "HgN/A
7:50 AM32 °FPartly sunny.7 mph87%29.53 "HgN/A
7:20 AM32 °FPassing clouds.5 mph87%29.53 "HgN/A
6:50 AM32 °FPassing clouds.7 mph93%29.53 "HgN/A
6:20 AM32 °FLight snow. Passing clouds.5 mph87%29.53 "Hg5 mi
5:50 AM34 °FLight snow. Passing clouds.7 mph81%29.53 "HgN/A
5:20 AM34 °FPassing clouds.7 mph81%29.53 "HgN/A
4:50 AM34 °FLight snow. Passing clouds.9 mph81%29.53 "HgN/A
4:20 AM34 °FLight snow. Passing clouds.12 mph75%29.56 "HgN/A
3:50 AM36 °FLight snow. Passing clouds.16 mph65%29.56 "HgN/A
3:20 AM36 °FPassing clouds.13 mph65%29.56 "HgN/A
2:50 AM36 °FClear.17 mph65%29.56 "Hg10 mi
2:20 AM34 °FClear.20 mph70%29.56 "Hg10 mi
1:50 AM36 °FClear.18 mph65%29.59 "Hg10 mi
1:20 AM34 °FClear.17 mph70%29.59 "Hg10 mi
12:50 AM34 °FClear.22 mph70%29.62 "Hg10 mi
12:20 AM34 °FClear.21 mph70%29.68 "Hg10 mi
11:50 PM
Jan 28
34 °FClear.17 mph70%29.71 "Hg10 mi
11:20 PM34 °FClear.18 mph70%29.71 "Hg10 mi
10:50 PM34 °FClear.21 mph75%29.71 "Hg10 mi
10:20 PM34 °FClear.20 mph75%29.71 "Hg10 mi
9:50 PM34 °FClear.15 mph75%29.77 "Hg10 mi
9:20 PM28 °FClear.9 mph86%29.80 "Hg10 mi
Weather by CustomWeather, © 2014

See weather overviewHow to use our weather pages